sat.trackr.live / text

‹ back to catalog

STARLINK-34255

NORAD 65417 · 2025-192P

PAYLOAD ACTIVE UNKNOWN

§ Identity

Operator
Country
US
Launch date
2025-08-31
Launch site
AFETR
Launch vehicle
Mass (kg)
RCS (m²)

Purposes: comms

External: N2YO · Heavens-Above · Gunter

§ Orbital elements

Epoch: 2026-09-20T21:53:59.584416Z

Period
93.85 min
Inclination
53.1602°
Eccentricity
0.0001107
Mean motion
15.34405490 rev/d
Perigee alt
461.9 km
Apogee alt
463.4 km
Semi-major
6,840.8 km
B*
3.3388e-4
RAAN
43.4341°
Arg perigee
83.3266°
Mean anomaly
276.7862°
Rev number
5,930

§ Raw data

STARLINK-342551 65417U 25192P   26263.91249519  .00010923  00000+0  33388-3 0  99932 65417  53.1602  43.4341 0001107  83.3266 276.7862 15.34405490 59308

JSON: /api/v1/satellites/65417 · /tle

For live sub-satellite position, see the globe view (requires WebGL).

§ Visibility from observer

Set your observer location to see the next 7 days of passes ≥ 10°. The values pass through the URL so the page stays shareable.

No JS? Fill the form by hand. The geolocation button needs JavaScript.